Simultaneous Nadir Overpasses (SNOs) Predictions

Prediction of SNOs near US between AQUA and NPP Satellite Orbit:

Table of predicted SNOs near US for the next 10.0 days since TLE Epoch: 5/6/2014
Index Date (AQUA) Time (AQUA) AQUA Lat,Lon Date (NPP) Time (NPP) NPP Lat,Lon Distance(km) Time Diff (sec)
1 05/08/2014 07:46:27 20.01, -89.62 05/08/2014 07:40:59 20.00, -89.49 13.22 328
2 05/08/2014 09:20:01 39.19,-109.29 05/08/2014 09:17:00 39.23,-109.49 17.87 181
3 05/11/2014 06:31:05 46.63, -65.04 05/11/2014 06:36:15 47.02, -67.00 155.01 310
4 05/11/2014 08:09:03 49.90, -88.46 05/11/2014 08:16:47 50.36, -90.93 183.46 464
5 05/13/2014 17:28:18 49.96, -67.90 05/13/2014 17:26:08 51.44, -70.08 225.23 130
6 05/13/2014 19:07:11 49.96, -92.62 05/13/2014 19:07:06 49.61, -94.60 147.87 5
7 05/13/2014 20:43:38 41.27,-114.14 05/13/2014 20:46:04 40.82,-116.57 209.85 146
8 05/16/2014 06:56:59 20.05, -77.25 05/16/2014 06:50:27 19.96, -76.81 47.10 392
9 05/16/2014 08:32:08 33.54, -98.59 05/16/2014 08:28:05 33.54, -98.57 1.53 243
10 05/16/2014 10:07:59 44.42,-119.93 05/16/2014 10:06:26 44.52,-120.31 32.43 93




NCC Satellite Simultaneous Nadir Overpasses (SNOs) Prediction Service
